Volver al catálogo

CZ-6A DEB

ActivoPO
NORAD 61113·DEBRIS·🇨🇳 China

Lanzado Aug 6, 2024 desde Taiyuan Satellite Launch Center

Loading…

Próximos Pases (próximas 24 horas)

TLE

ActualizadoSource: Space-Track

Época: Sep 13, 2026, 09:00 UTC

1 61113U 24140PF  26256.37500051  .00000233  00000-0  23491-3 0  9995
2 61113  88.2878 219.3745 0437570 198.2808 160.2179 13.38998255100637

Sigue CZ-6A DEB en tiempo real con AllMySat

Download on the App Store